Location: Bosmont
(49.7318°N, 3.8587°E)
Time: 07:01:58
(UTC+00:00)

Cosmos 1825 - Pass Details

Date: 08 February 2023
Orbit: 480 x 487 km, 82.5° (Epoch: 30 March)

Event Time Altitude Azimuth Distance (km) Brightness Sun altitude
Rises 17:48:45 0° 194° (SSW) 2,574 6.1 -9.7°
Reaches altitude 10° 17:50:51 10° 197° (SSW) 1,697 5.2 -10.1°
Maximum altitude 17:54:34 70° 281° (W) 537 2.5 -10.7°
Drops below altitude 10° 17:58:18 10° 6° (N) 1,713 4.7 -11.2°
Sets 18:00:27 0° 9° (N) 2,601 5.6 -11.6°
